Lid_Strength_Index
-1 -1 -2 -2 -2 -2 -2 -2 -2 -2 -2 -2 -2 -2 -2 -2 -2 -2 -2 -2 -2 -2 -2 -2 -1 -1 -1
-0 0 -0 -1 -2 -2 -2 -1 -1 -1 -1 -1 -1 -2 -2 -2 -2 -2 -2 -2 -1 -2 -2 -1 -1 -1 -1
-0 1 1 0 -1 -1 -0 0 0 -0 -0 -0 -0 -1 -2 -2 -2 -2 -1 -1 -0 -1 -1 -1 -0 -1 -1
-1 0 -0 -0 -1 -0 -0 0 -0 0 -0 -0 1 -0 -1 -1 -2 -2 -1 -0 2 3 2 0 1 1 1
0 -0 -0 -0 -0 -0 0 0 0 -0 0 0 0 -1 -0 0 0 0 1 2 3 3 3 3 2 2 3
1 -0 1 1 -0 -0 0 0 -0 0 1 1 1 -0 -0 1 2 2 2 2 3 3 4 4 4 4 3
1 0 1 1 -0 -0 0 0 -0 0 0 1 1 1 1 1 2 2 2 2 3 4 4 4 5 5 5
0 -0 1 0 -0 -0 0 1 0 0 0 0 1 1 1 -0 0 2 3 4 4 4 5 5 5 5 5
0 -0 1 0 -0 1 0 1 1 0 -0 0 0 1 1 0 1 1 3 4 5 5 6 6 6 6 6
2 1 1 1 1 1 1 1 1 0 0 0 1 0 1 1 1 2 4 5 6 6 8 8 8 8 8
2 2 2 1 1 2 2 1 1 0 0 0 0 -0 -0 1 1 3 5 5 7 7 8 9 10 10 10
2 2 2 2 2 2 2 1 1 1 1 0 -0 -0 0 1 1 2 5 6 6 7 7 9 10 11 12
2 2 3 3 3 2 2 2 1 1 1 -0 -0 0 0 1 1 2 4 6 7 8 9 10 11 11 12
1 2 2 3 2 2 2 2 1 0 1 -0 -0 0 1 1 2 2 4 6 7 8 10 10 12 12 12
1 1 2 3 2 2 3 3 2 0 0 1 0 -0 1 1 2 2 3 5 8 8 8 9 11 12 13
1 1 2 3 4 2 2 2 2 1 0 1 1 0 1 1 2 1 3 4 7 8 8 7 8 9 12